Index of /20260411/WXO-DD/model_rdps/10km/06/061
Name Last modified Size Description
Parent Directory -
20260411T06Z_MSC_RDPS_AbsoluteVorticity_IsbL-0250_RLatLon0.09_PT061H.grib2 2026-04-11 09:07 734K
20260411T06Z_MSC_RDPS_AbsoluteVorticity_IsbL-0500_RLatLon0.09_PT061H.grib2 2026-04-11 09:07 563K
20260411T06Z_MSC_RDPS_AbsoluteVorticity_IsbL-0700_RLatLon0.09_PT061H.grib2 2026-04-11 09:07 755K
20260411T06Z_MSC_RDPS_AbsoluteVorticity_IsbL-0850_RLatLon0.09_PT061H.grib2 2026-04-11 09:07 788K
20260411T06Z_MSC_RDPS_AirTemp_AGL-120m_RLatLon0.09_PT061H.grib2 2026-04-11 09:07 398K
20260411T06Z_MSC_RDPS_AirTemp_AGL-2m_RLatLon0.09_PT061H.grib2 2026-04-11 09:07 639K
20260411T06Z_MSC_RDPS_AirTemp_AGL-40m_RLatLon0.09_PT061H.grib2 2026-04-11 09:07 410K
20260411T06Z_MSC_RDPS_AirTemp_AGL-80m_RLatLon0.09_PT061H.grib2 2026-04-11 09:07 404K
20260411T06Z_MSC_RDPS_AirTemp_IsbL-0001_RLatLon0.09_PT061H.grib2 2026-04-11 09:07 324K
20260411T06Z_MSC_RDPS_AirTemp_IsbL-0005_RLatLon0.09_PT061H.grib2 2026-04-11 09:07 260K
20260411T06Z_MSC_RDPS_AirTemp_IsbL-0010_RLatLon0.09_PT061H.grib2 2026-04-11 09:07 351K
20260411T06Z_MSC_RDPS_AirTemp_IsbL-0020_RLatLon0.09_PT061H.grib2 2026-04-11 09:07 371K
20260411T06Z_MSC_RDPS_AirTemp_IsbL-0030_RLatLon0.09_PT061H.grib2 2026-04-11 09:07 301K
20260411T06Z_MSC_RDPS_AirTemp_IsbL-0050_RLatLon0.09_PT061H.grib2 2026-04-11 09:07 335K
20260411T06Z_MSC_RDPS_AirTemp_IsbL-0100_RLatLon0.09_PT061H.grib2 2026-04-11 09:07 401K
20260411T06Z_MSC_RDPS_AirTemp_IsbL-0150_RLatLon0.09_PT061H.grib2 2026-04-11 09:07 415K
20260411T06Z_MSC_RDPS_AirTemp_IsbL-0175_RLatLon0.09_PT061H.grib2 2026-04-11 09:07 412K
20260411T06Z_MSC_RDPS_AirTemp_IsbL-0200_RLatLon0.09_PT061H.grib2 2026-04-11 09:07 412K
20260411T06Z_MSC_RDPS_AirTemp_IsbL-0225_RLatLon0.09_PT061H.grib2 2026-04-11 09:07 413K
20260411T06Z_MSC_RDPS_AirTemp_IsbL-0250_RLatLon0.09_PT061H.grib2 2026-04-11 09:07 418K
20260411T06Z_MSC_RDPS_AirTemp_IsbL-0275_RLatLon0.09_PT061H.grib2 2026-04-11 09:07 400K
20260411T06Z_MSC_RDPS_AirTemp_IsbL-0300_RLatLon0.09_PT061H.grib2 2026-04-11 09:07 431K
20260411T06Z_MSC_RDPS_AirTemp_IsbL-0350_RLatLon0.09_PT061H.grib2 2026-04-11 09:07 420K
20260411T06Z_MSC_RDPS_AirTemp_IsbL-0400_RLatLon0.09_PT061H.grib2 2026-04-11 09:07 388K
20260411T06Z_MSC_RDPS_AirTemp_IsbL-0450_RLatLon0.09_PT061H.grib2 2026-04-11 09:07 396K
20260411T06Z_MSC_RDPS_AirTemp_IsbL-0500_RLatLon0.09_PT061H.grib2 2026-04-11 09:07 409K
20260411T06Z_MSC_RDPS_AirTemp_IsbL-0550_RLatLon0.09_PT061H.grib2 2026-04-11 09:07 429K
20260411T06Z_MSC_RDPS_AirTemp_IsbL-0600_RLatLon0.09_PT061H.grib2 2026-04-11 09:07 347K
20260411T06Z_MSC_RDPS_AirTemp_IsbL-0650_RLatLon0.09_PT061H.grib2 2026-04-11 09:07 360K
20260411T06Z_MSC_RDPS_AirTemp_IsbL-0700_RLatLon0.09_PT061H.grib2 2026-04-11 09:07 383K
20260411T06Z_MSC_RDPS_AirTemp_IsbL-0750_RLatLon0.09_PT061H.grib2 2026-04-11 09:07 420K
20260411T06Z_MSC_RDPS_AirTemp_IsbL-0800_RLatLon0.09_PT061H.grib2 2026-04-11 09:07 467K
20260411T06Z_MSC_RDPS_AirTemp_IsbL-0850_RLatLon0.09_PT061H.grib2 2026-04-11 09:07 507K
20260411T06Z_MSC_RDPS_AirTemp_IsbL-0875_RLatLon0.09_PT061H.grib2 2026-04-11 09:07 520K
20260411T06Z_MSC_RDPS_AirTemp_IsbL-0900_RLatLon0.09_PT061H.grib2 2026-04-11 09:07 523K
20260411T06Z_MSC_RDPS_AirTemp_IsbL-0925_RLatLon0.09_PT061H.grib2 2026-04-11 09:07 523K
20260411T06Z_MSC_RDPS_AirTemp_IsbL-0950_RLatLon0.09_PT061H.grib2 2026-04-11 09:07 533K
20260411T06Z_MSC_RDPS_AirTemp_IsbL-0970_RLatLon0.09_PT061H.grib2 2026-04-11 09:07 530K
20260411T06Z_MSC_RDPS_AirTemp_IsbL-0985_RLatLon0.09_PT061H.grib2 2026-04-11 09:07 523K
20260411T06Z_MSC_RDPS_AirTemp_IsbL-1000_RLatLon0.09_PT061H.grib2 2026-04-11 09:07 514K
20260411T06Z_MSC_RDPS_AirTemp_IsbL-1015_RLatLon0.09_PT061H.grib2 2026-04-11 09:07 510K
20260411T06Z_MSC_RDPS_Albedo_Sfc_RLatLon0.09_PT061H.grib2 2026-04-11 09:07 169K
20260411T06Z_MSC_RDPS_CAPE_Sfc_RLatLon0.09_PT061H.grib2 2026-04-11 09:07 1.7M
20260411T06Z_MSC_RDPS_CIN_Sfc_RLatLon0.09_PT061H.grib2 2026-04-11 09:07 1.2M
20260411T06Z_MSC_RDPS_CloudWater_EAtm_RLatLon0.09_PT061H.grib2 2026-04-11 09:07 211K
20260411T06Z_MSC_RDPS_ConvectivePrecip-Accum_Sfc_RLatLon0.09_PT061H.grib2 2026-04-11 09:07 1.2M
20260411T06Z_MSC_RDPS_DewPointDepression_AGL-2m_RLatLon0.09_PT061H.grib2 2026-04-11 09:07 407K
20260411T06Z_MSC_RDPS_DewPointDepression_IsbL-0001_RLatLon0.09_PT061H.grib2 2026-04-11 09:07 193
20260411T06Z_MSC_RDPS_DewPointDepression_IsbL-0005_RLatLon0.09_PT061H.grib2 2026-04-11 09:07 193
20260411T06Z_MSC_RDPS_DewPointDepression_IsbL-0010_RLatLon0.09_PT061H.grib2 2026-04-11 09:07 193
20260411T06Z_MSC_RDPS_DewPointDepression_IsbL-0020_RLatLon0.09_PT061H.grib2 2026-04-11 09:07 193
20260411T06Z_MSC_RDPS_DewPointDepression_IsbL-0030_RLatLon0.09_PT061H.grib2 2026-04-11 09:07 28K
20260411T06Z_MSC_RDPS_DewPointDepression_IsbL-0050_RLatLon0.09_PT061H.grib2 2026-04-11 09:07 110K
20260411T06Z_MSC_RDPS_DewPointDepression_IsbL-0100_RLatLon0.09_PT061H.grib2 2026-04-11 09:07 129K
20260411T06Z_MSC_RDPS_DewPointDepression_IsbL-0150_RLatLon0.09_PT061H.grib2 2026-04-11 09:07 141K
20260411T06Z_MSC_RDPS_DewPointDepression_IsbL-0175_RLatLon0.09_PT061H.grib2 2026-04-11 09:07 177K
20260411T06Z_MSC_RDPS_DewPointDepression_IsbL-0200_RLatLon0.09_PT061H.grib2 2026-04-11 09:07 209K
20260411T06Z_MSC_RDPS_DewPointDepression_IsbL-0225_RLatLon0.09_PT061H.grib2 2026-04-11 09:07 246K
20260411T06Z_MSC_RDPS_DewPointDepression_IsbL-0250_RLatLon0.09_PT061H.grib2 2026-04-11 09:07 278K
20260411T06Z_MSC_RDPS_DewPointDepression_IsbL-0275_RLatLon0.09_PT061H.grib2 2026-04-11 09:07 291K
20260411T06Z_MSC_RDPS_DewPointDepression_IsbL-0300_RLatLon0.09_PT061H.grib2 2026-04-11 09:07 312K
20260411T06Z_MSC_RDPS_DewPointDepression_IsbL-0350_RLatLon0.09_PT061H.grib2 2026-04-11 09:07 322K
20260411T06Z_MSC_RDPS_DewPointDepression_IsbL-0400_RLatLon0.09_PT061H.grib2 2026-04-11 09:07 330K
20260411T06Z_MSC_RDPS_DewPointDepression_IsbL-0450_RLatLon0.09_PT061H.grib2 2026-04-11 09:07 337K
20260411T06Z_MSC_RDPS_DewPointDepression_IsbL-0500_RLatLon0.09_PT061H.grib2 2026-04-11 09:07 343K
20260411T06Z_MSC_RDPS_DewPointDepression_IsbL-0550_RLatLon0.09_PT061H.grib2 2026-04-11 09:07 358K
20260411T06Z_MSC_RDPS_DewPointDepression_IsbL-0600_RLatLon0.09_PT061H.grib2 2026-04-11 09:07 373K
20260411T06Z_MSC_RDPS_DewPointDepression_IsbL-0650_RLatLon0.09_PT061H.grib2 2026-04-11 09:07 383K
20260411T06Z_MSC_RDPS_DewPointDepression_IsbL-0700_RLatLon0.09_PT061H.grib2 2026-04-11 09:07 399K
20260411T06Z_MSC_RDPS_DewPointDepression_IsbL-0750_RLatLon0.09_PT061H.grib2 2026-04-11 09:07 422K
20260411T06Z_MSC_RDPS_DewPointDepression_IsbL-0800_RLatLon0.09_PT061H.grib2 2026-04-11 09:07 452K
20260411T06Z_MSC_RDPS_DewPointDepression_IsbL-0850_RLatLon0.09_PT061H.grib2 2026-04-11 09:07 473K
20260411T06Z_MSC_RDPS_DewPointDepression_IsbL-0875_RLatLon0.09_PT061H.grib2 2026-04-11 09:07 471K
20260411T06Z_MSC_RDPS_DewPointDepression_IsbL-0900_RLatLon0.09_PT061H.grib2 2026-04-11 09:07 458K
20260411T06Z_MSC_RDPS_DewPointDepression_IsbL-0925_RLatLon0.09_PT061H.grib2 2026-04-11 09:07 444K
20260411T06Z_MSC_RDPS_DewPointDepression_IsbL-0950_RLatLon0.09_PT061H.grib2 2026-04-11 09:07 434K
20260411T06Z_MSC_RDPS_DewPointDepression_IsbL-0970_RLatLon0.09_PT061H.grib2 2026-04-11 09:07 432K
20260411T06Z_MSC_RDPS_DewPointDepression_IsbL-0985_RLatLon0.09_PT061H.grib2 2026-04-11 09:07 429K
20260411T06Z_MSC_RDPS_DewPointDepression_IsbL-1000_RLatLon0.09_PT061H.grib2 2026-04-11 09:07 423K
20260411T06Z_MSC_RDPS_DewPointDepression_IsbL-1015_RLatLon0.09_PT061H.grib2 2026-04-11 09:07 415K
20260411T06Z_MSC_RDPS_DewPoint_AGL-2m_RLatLon0.09_PT061H.grib2 2026-04-11 09:07 310K
20260411T06Z_MSC_RDPS_DownwardLongwaveRadiationFlux-Accum_Sfc_RLatLon0.09_PT061H.grib2 2026-04-11 09:07 397K
20260411T06Z_MSC_RDPS_DownwardShortwaveRadiationFlux-Accum_NTAtm_RLatLon0.09_PT061H.grib2 2026-04-11 09:07 124K
20260411T06Z_MSC_RDPS_DownwardShortwaveRadiationFlux-Accum_Sfc_RLatLon0.09_PT061H.grib2 2026-04-11 09:07 565K
20260411T06Z_MSC_RDPS_FreezingRain-Accum1h_Sfc_RLatLon0.09_PT061H.grib2 2026-04-11 09:07 6.8K
20260411T06Z_MSC_RDPS_FreezingRain-Accum_Sfc_RLatLon0.09_PT061H.grib2 2026-04-11 09:07 147K
20260411T06Z_MSC_RDPS_GeopotentialHeight_IsbL-0001_RLatLon0.09_PT061H.grib2 2026-04-11 09:07 249K
20260411T06Z_MSC_RDPS_GeopotentialHeight_IsbL-0005_RLatLon0.09_PT061H.grib2 2026-04-11 09:07 273K
20260411T06Z_MSC_RDPS_GeopotentialHeight_IsbL-0010_RLatLon0.09_PT061H.grib2 2026-04-11 09:07 319K
20260411T06Z_MSC_RDPS_GeopotentialHeight_IsbL-0020_RLatLon0.09_PT061H.grib2 2026-04-11 09:07 244K
20260411T06Z_MSC_RDPS_GeopotentialHeight_IsbL-0030_RLatLon0.09_PT061H.grib2 2026-04-11 09:07 320K
20260411T06Z_MSC_RDPS_GeopotentialHeight_IsbL-0050_RLatLon0.09_PT061H.grib2 2026-04-11 09:07 245K
20260411T06Z_MSC_RDPS_GeopotentialHeight_IsbL-0100_RLatLon0.09_PT061H.grib2 2026-04-11 09:07 226K
20260411T06Z_MSC_RDPS_GeopotentialHeight_IsbL-0150_RLatLon0.09_PT061H.grib2 2026-04-11 09:07 267K
20260411T06Z_MSC_RDPS_GeopotentialHeight_IsbL-0175_RLatLon0.09_PT061H.grib2 2026-04-11 09:07 269K
20260411T06Z_MSC_RDPS_GeopotentialHeight_IsbL-0200_RLatLon0.09_PT061H.grib2 2026-04-11 09:07 270K
20260411T06Z_MSC_RDPS_GeopotentialHeight_IsbL-0225_RLatLon0.09_PT061H.grib2 2026-04-11 09:07 270K
20260411T06Z_MSC_RDPS_GeopotentialHeight_IsbL-0250_RLatLon0.09_PT061H.grib2 2026-04-11 09:07 270K
20260411T06Z_MSC_RDPS_GeopotentialHeight_IsbL-0275_RLatLon0.09_PT061H.grib2 2026-04-11 09:07 269K
20260411T06Z_MSC_RDPS_GeopotentialHeight_IsbL-0300_RLatLon0.09_PT061H.grib2 2026-04-11 09:07 268K
20260411T06Z_MSC_RDPS_GeopotentialHeight_IsbL-0350_RLatLon0.09_PT061H.grib2 2026-04-11 09:07 261K
20260411T06Z_MSC_RDPS_GeopotentialHeight_IsbL-0400_RLatLon0.09_PT061H.grib2 2026-04-11 09:07 258K
20260411T06Z_MSC_RDPS_GeopotentialHeight_IsbL-0450_RLatLon0.09_PT061H.grib2 2026-04-11 09:07 225K
20260411T06Z_MSC_RDPS_GeopotentialHeight_IsbL-0500_RLatLon0.09_PT061H.grib2 2026-04-11 09:07 220K
20260411T06Z_MSC_RDPS_GeopotentialHeight_IsbL-0550_RLatLon0.09_PT061H.grib2 2026-04-11 09:07 288K
20260411T06Z_MSC_RDPS_GeopotentialHeight_IsbL-0600_RLatLon0.09_PT061H.grib2 2026-04-11 09:07 285K
20260411T06Z_MSC_RDPS_GeopotentialHeight_IsbL-0650_RLatLon0.09_PT061H.grib2 2026-04-11 09:07 284K
20260411T06Z_MSC_RDPS_GeopotentialHeight_IsbL-0700_RLatLon0.09_PT061H.grib2 2026-04-11 09:07 285K
20260411T06Z_MSC_RDPS_GeopotentialHeight_IsbL-0750_RLatLon0.09_PT061H.grib2 2026-04-11 09:07 261K
20260411T06Z_MSC_RDPS_GeopotentialHeight_IsbL-0800_RLatLon0.09_PT061H.grib2 2026-04-11 09:07 270K
20260411T06Z_MSC_RDPS_GeopotentialHeight_IsbL-0850_RLatLon0.09_PT061H.grib2 2026-04-11 09:07 278K
20260411T06Z_MSC_RDPS_GeopotentialHeight_IsbL-0875_RLatLon0.09_PT061H.grib2 2026-04-11 09:07 280K
20260411T06Z_MSC_RDPS_GeopotentialHeight_IsbL-0900_RLatLon0.09_PT061H.grib2 2026-04-11 09:07 283K
20260411T06Z_MSC_RDPS_GeopotentialHeight_IsbL-0925_RLatLon0.09_PT061H.grib2 2026-04-11 09:07 285K
20260411T06Z_MSC_RDPS_GeopotentialHeight_IsbL-0950_RLatLon0.09_PT061H.grib2 2026-04-11 09:07 289K
20260411T06Z_MSC_RDPS_GeopotentialHeight_IsbL-0970_RLatLon0.09_PT061H.grib2 2026-04-11 09:07 295K
20260411T06Z_MSC_RDPS_GeopotentialHeight_IsbL-0985_RLatLon0.09_PT061H.grib2 2026-04-11 09:07 301K
20260411T06Z_MSC_RDPS_GeopotentialHeight_IsbL-1000_RLatLon0.09_PT061H.grib2 2026-04-11 09:07 310K
20260411T06Z_MSC_RDPS_GeopotentialHeight_IsbL-1015_RLatLon0.09_PT061H.grib2 2026-04-11 09:07 321K
20260411T06Z_MSC_RDPS_Humidex_Sfc_RLatLon0.09_PT061H.grib2 2026-04-11 09:07 2.3M
20260411T06Z_MSC_RDPS_IcePellets-Accum1h_Sfc_RLatLon0.09_PT061H.grib2 2026-04-11 09:07 6.8K
20260411T06Z_MSC_RDPS_IcePellets-Accum_Sfc_RLatLon0.09_PT061H.grib2 2026-04-11 09:07 34K
20260411T06Z_MSC_RDPS_KIndex_Sfc_RLatLon0.09_PT061H.grib2 2026-04-11 09:07 2.4M
20260411T06Z_MSC_RDPS_LatentHeatNetFlux_Sfc_RLatLon0.09_PT061H.grib2 2026-04-11 09:07 290K
20260411T06Z_MSC_RDPS_LiftedIndex-MU-VT_IsbL-0500_RLatLon0.09_PT061H.grib2 2026-04-11 09:07 2.4M
20260411T06Z_MSC_RDPS_NetLongwaveRadiationFlux-Accum_Sfc_RLatLon0.09_PT061H.grib2 2026-04-11 09:07 570K
20260411T06Z_MSC_RDPS_NetShortwaveRadiationFlux-Accum_Sfc_RLatLon0.09_PT061H.grib2 2026-04-11 09:07 575K
20260411T06Z_MSC_RDPS_PlanetaryBoundaryLayerHeight_Sfc_RLatLon0.09_PT061H.grib2 2026-04-11 09:07 1.0M
20260411T06Z_MSC_RDPS_Precip-Accum1h_Sfc_RLatLon0.09_PT061H.grib2 2026-04-11 09:07 1.3M
20260411T06Z_MSC_RDPS_Precip-Accum_Sfc_RLatLon0.09_PT061H.grib2 2026-04-11 09:07 2.1M
20260411T06Z_MSC_RDPS_PrecipRate_Sfc_RLatLon0.09_PT061H.grib2 2026-04-11 09:07 195K
20260411T06Z_MSC_RDPS_PrecipType-Instant_Sfc_RLatLon0.09_PT061H.grib2 2026-04-11 09:07 631K
20260411T06Z_MSC_RDPS_Pressure-Trend3h_Sfc_RLatLon0.09_PT061H.grib2 2026-04-11 09:07 1.2M
20260411T06Z_MSC_RDPS_Pressure_MSL_RLatLon0.09_PT061H.grib2 2026-04-11 09:07 336K
20260411T06Z_MSC_RDPS_Pressure_PVU-1.5_RLatLon0.09_PT061H.grib2 2026-04-11 09:07 2.3M
20260411T06Z_MSC_RDPS_Pressure_PVU-1_RLatLon0.09_PT061H.grib2 2026-04-11 09:07 2.4M
20260411T06Z_MSC_RDPS_Pressure_PVU-2_RLatLon0.09_PT061H.grib2 2026-04-11 09:07 2.4M
20260411T06Z_MSC_RDPS_Pressure_Sfc_RLatLon0.09_PT061H.grib2 2026-04-11 09:07 502K
20260411T06Z_MSC_RDPS_RadiativeTemp_Sfc_RLatLon0.09_PT061H.grib2 2026-04-11 09:07 328K
20260411T06Z_MSC_RDPS_Rain-Accum1h_Sfc_RLatLon0.09_PT061H.grib2 2026-04-11 09:07 650K
20260411T06Z_MSC_RDPS_Rain-Accum_Sfc_RLatLon0.09_PT061H.grib2 2026-04-11 09:07 1.6M
20260411T06Z_MSC_RDPS_RelativeHumidity_AGL-2m_RLatLon0.09_PT061H.grib2 2026-04-11 09:07 1.0M
20260411T06Z_MSC_RDPS_RelativeHumidity_IsbL-0010_RLatLon0.09_PT061H.grib2 2026-04-11 09:07 430K
20260411T06Z_MSC_RDPS_RelativeHumidity_IsbL-0020_RLatLon0.09_PT061H.grib2 2026-04-11 09:07 404K
20260411T06Z_MSC_RDPS_RelativeHumidity_IsbL-0030_RLatLon0.09_PT061H.grib2 2026-04-11 09:07 380K
20260411T06Z_MSC_RDPS_RelativeHumidity_IsbL-0050_RLatLon0.09_PT061H.grib2 2026-04-11 09:07 399K
20260411T06Z_MSC_RDPS_RelativeHumidity_IsbL-0100_RLatLon0.09_PT061H.grib2 2026-04-11 09:07 266K
20260411T06Z_MSC_RDPS_RelativeHumidity_IsbL-0150_RLatLon0.09_PT061H.grib2 2026-04-11 09:07 385K
20260411T06Z_MSC_RDPS_RelativeHumidity_IsbL-0175_RLatLon0.09_PT061H.grib2 2026-04-11 09:07 471K
20260411T06Z_MSC_RDPS_RelativeHumidity_IsbL-0200_RLatLon0.09_PT061H.grib2 2026-04-11 09:07 548K
20260411T06Z_MSC_RDPS_RelativeHumidity_IsbL-0225_RLatLon0.09_PT061H.grib2 2026-04-11 09:07 611K
20260411T06Z_MSC_RDPS_RelativeHumidity_IsbL-0250_RLatLon0.09_PT061H.grib2 2026-04-11 09:07 668K
20260411T06Z_MSC_RDPS_RelativeHumidity_IsbL-0275_RLatLon0.09_PT061H.grib2 2026-04-11 09:07 686K
20260411T06Z_MSC_RDPS_RelativeHumidity_IsbL-0300_RLatLon0.09_PT061H.grib2 2026-04-11 09:07 730K
20260411T06Z_MSC_RDPS_RelativeHumidity_IsbL-0350_RLatLon0.09_PT061H.grib2 2026-04-11 09:07 754K
20260411T06Z_MSC_RDPS_RelativeHumidity_IsbL-0400_RLatLon0.09_PT061H.grib2 2026-04-11 09:07 770K
20260411T06Z_MSC_RDPS_RelativeHumidity_IsbL-0450_RLatLon0.09_PT061H.grib2 2026-04-11 09:07 780K
20260411T06Z_MSC_RDPS_RelativeHumidity_IsbL-0500_RLatLon0.09_PT061H.grib2 2026-04-11 09:07 803K
20260411T06Z_MSC_RDPS_RelativeHumidity_IsbL-0550_RLatLon0.09_PT061H.grib2 2026-04-11 09:07 829K
20260411T06Z_MSC_RDPS_RelativeHumidity_IsbL-0600_RLatLon0.09_PT061H.grib2 2026-04-11 09:07 854K
20260411T06Z_MSC_RDPS_RelativeHumidity_IsbL-0650_RLatLon0.09_PT061H.grib2 2026-04-11 09:07 869K
20260411T06Z_MSC_RDPS_RelativeHumidity_IsbL-0700_RLatLon0.09_PT061H.grib2 2026-04-11 09:07 892K
20260411T06Z_MSC_RDPS_RelativeHumidity_IsbL-0750_RLatLon0.09_PT061H.grib2 2026-04-11 09:07 934K
20260411T06Z_MSC_RDPS_RelativeHumidity_IsbL-0800_RLatLon0.09_PT061H.grib2 2026-04-11 09:07 1.0M
20260411T06Z_MSC_RDPS_RelativeHumidity_IsbL-0850_RLatLon0.09_PT061H.grib2 2026-04-11 09:07 1.0M
20260411T06Z_MSC_RDPS_RelativeHumidity_IsbL-0875_RLatLon0.09_PT061H.grib2 2026-04-11 09:07 1.1M
20260411T06Z_MSC_RDPS_RelativeHumidity_IsbL-0900_RLatLon0.09_PT061H.grib2 2026-04-11 09:07 1.1M
20260411T06Z_MSC_RDPS_RelativeHumidity_IsbL-0925_RLatLon0.09_PT061H.grib2 2026-04-11 09:07 1.1M
20260411T06Z_MSC_RDPS_RelativeHumidity_IsbL-0950_RLatLon0.09_PT061H.grib2 2026-04-11 09:07 1.0M
20260411T06Z_MSC_RDPS_RelativeHumidity_IsbL-0970_RLatLon0.09_PT061H.grib2 2026-04-11 09:07 1.0M
20260411T06Z_MSC_RDPS_RelativeHumidity_IsbL-0985_RLatLon0.09_PT061H.grib2 2026-04-11 09:07 1.0M
20260411T06Z_MSC_RDPS_RelativeHumidity_IsbL-1000_RLatLon0.09_PT061H.grib2 2026-04-11 09:07 1.0M
20260411T06Z_MSC_RDPS_RelativeHumidity_IsbL-1015_RLatLon0.09_PT061H.grib2 2026-04-11 09:07 1.0M
20260411T06Z_MSC_RDPS_Runoff-Accum_Sfc_RLatLon0.09_PT061H.grib2 2026-04-11 09:07 61K
20260411T06Z_MSC_RDPS_SWEATIndex_Sfc_RLatLon0.09_PT061H.grib2 2026-04-11 09:07 2.4M
20260411T06Z_MSC_RDPS_SeeingIndex_EAtm_RLatLon0.09_PT061H.grib2 2026-04-11 09:07 1.0M
20260411T06Z_MSC_RDPS_SensibleHeatNetFlux_Sfc_RLatLon0.09_PT061H.grib2 2026-04-11 09:07 367K
20260411T06Z_MSC_RDPS_ShowalterIndex_IsbL-0500_RLatLon0.09_PT061H.grib2 2026-04-11 09:07 2.6M
20260411T06Z_MSC_RDPS_SkyTransparencyIndex_EAtm_RLatLon0.09_PT061H.grib2 2026-04-11 09:07 692K
20260411T06Z_MSC_RDPS_Snow-Accum1h_Sfc_RLatLon0.09_PT061H.grib2 2026-04-11 09:07 463K
20260411T06Z_MSC_RDPS_Snow-Accum_Sfc_RLatLon0.09_PT061H.grib2 2026-04-11 09:07 813K
20260411T06Z_MSC_RDPS_SnowDensity_Sfc_RLatLon0.09_PT061H.grib2 2026-04-11 09:07 181K
20260411T06Z_MSC_RDPS_SnowDepth_Sfc_RLatLon0.09_PT061H.grib2 2026-04-11 09:07 735K
20260411T06Z_MSC_RDPS_SoilTemp_DBS-0to10cm_RLatLon0.09_PT061H.grib2 2026-04-11 09:07 241K
20260411T06Z_MSC_RDPS_SoilTemp_Sfc_RLatLon0.09_PT061H.grib2 2026-04-11 09:07 296K
20260411T06Z_MSC_RDPS_SoilVolumetricIceContent_Sfc_RLatLon0.09_PT061H.grib2 2026-04-11 09:07 177K
20260411T06Z_MSC_RDPS_SoilVolumetricWaterContent_DBS-0to10cm_RLatLon0.09_PT061H.grib2 2026-04-11 09:07 241K
20260411T06Z_MSC_RDPS_SoilVolumetricWaterContent_DBS-0to1cm_RLatLon0.09_PT061H.grib2 2026-04-11 09:07 338K
20260411T06Z_MSC_RDPS_SpecificHumidity_AGL-120m_RLatLon0.09_PT061H.grib2 2026-04-11 09:07 472K
20260411T06Z_MSC_RDPS_SpecificHumidity_AGL-2m_RLatLon0.09_PT061H.grib2 2026-04-11 09:07 637K
20260411T06Z_MSC_RDPS_SpecificHumidity_AGL-40m_RLatLon0.09_PT061H.grib2 2026-04-11 09:07 477K
20260411T06Z_MSC_RDPS_SpecificHumidity_AGL-80m_RLatLon0.09_PT061H.grib2 2026-04-11 09:07 474K
20260411T06Z_MSC_RDPS_SpecificHumidity_IsbL-0001_RLatLon0.09_PT061H.grib2 2026-04-11 09:07 311K
20260411T06Z_MSC_RDPS_SpecificHumidity_IsbL-0005_RLatLon0.09_PT061H.grib2 2026-04-11 09:07 332K
20260411T06Z_MSC_RDPS_SpecificHumidity_IsbL-0010_RLatLon0.09_PT061H.grib2 2026-04-11 09:07 355K
20260411T06Z_MSC_RDPS_SpecificHumidity_IsbL-0020_RLatLon0.09_PT061H.grib2 2026-04-11 09:07 366K
20260411T06Z_MSC_RDPS_SpecificHumidity_IsbL-0030_RLatLon0.09_PT061H.grib2 2026-04-11 09:07 371K
20260411T06Z_MSC_RDPS_SpecificHumidity_IsbL-0050_RLatLon0.09_PT061H.grib2 2026-04-11 09:07 477K
20260411T06Z_MSC_RDPS_SpecificHumidity_IsbL-0100_RLatLon0.09_PT061H.grib2 2026-04-11 09:07 396K
20260411T06Z_MSC_RDPS_SpecificHumidity_IsbL-0150_RLatLon0.09_PT061H.grib2 2026-04-11 09:07 434K
20260411T06Z_MSC_RDPS_SpecificHumidity_IsbL-0175_RLatLon0.09_PT061H.grib2 2026-04-11 09:07 425K
20260411T06Z_MSC_RDPS_SpecificHumidity_IsbL-0200_RLatLon0.09_PT061H.grib2 2026-04-11 09:07 455K
20260411T06Z_MSC_RDPS_SpecificHumidity_IsbL-0225_RLatLon0.09_PT061H.grib2 2026-04-11 09:07 440K
20260411T06Z_MSC_RDPS_SpecificHumidity_IsbL-0250_RLatLon0.09_PT061H.grib2 2026-04-11 09:07 494K
20260411T06Z_MSC_RDPS_SpecificHumidity_IsbL-0275_RLatLon0.09_PT061H.grib2 2026-04-11 09:07 450K
20260411T06Z_MSC_RDPS_SpecificHumidity_IsbL-0300_RLatLon0.09_PT061H.grib2 2026-04-11 09:07 425K
20260411T06Z_MSC_RDPS_SpecificHumidity_IsbL-0350_RLatLon0.09_PT061H.grib2 2026-04-11 09:07 420K
20260411T06Z_MSC_RDPS_SpecificHumidity_IsbL-0400_RLatLon0.09_PT061H.grib2 2026-04-11 09:07 496K
20260411T06Z_MSC_RDPS_SpecificHumidity_IsbL-0450_RLatLon0.09_PT061H.grib2 2026-04-11 09:07 551K
20260411T06Z_MSC_RDPS_SpecificHumidity_IsbL-0500_RLatLon0.09_PT061H.grib2 2026-04-11 09:07 489K
20260411T06Z_MSC_RDPS_SpecificHumidity_IsbL-0550_RLatLon0.09_PT061H.grib2 2026-04-11 09:07 569K
20260411T06Z_MSC_RDPS_SpecificHumidity_IsbL-0600_RLatLon0.09_PT061H.grib2 2026-04-11 09:07 625K
20260411T06Z_MSC_RDPS_SpecificHumidity_IsbL-0650_RLatLon0.09_PT061H.grib2 2026-04-11 09:07 546K
20260411T06Z_MSC_RDPS_SpecificHumidity_IsbL-0700_RLatLon0.09_PT061H.grib2 2026-04-11 09:07 589K
20260411T06Z_MSC_RDPS_SpecificHumidity_IsbL-0750_RLatLon0.09_PT061H.grib2 2026-04-11 09:07 645K
20260411T06Z_MSC_RDPS_SpecificHumidity_IsbL-0800_RLatLon0.09_PT061H.grib2 2026-04-11 09:07 726K
20260411T06Z_MSC_RDPS_SpecificHumidity_IsbL-0850_RLatLon0.09_PT061H.grib2 2026-04-11 09:07 788K
20260411T06Z_MSC_RDPS_SpecificHumidity_IsbL-0875_RLatLon0.09_PT061H.grib2 2026-04-11 09:07 806K
20260411T06Z_MSC_RDPS_SpecificHumidity_IsbL-0900_RLatLon0.09_PT061H.grib2 2026-04-11 09:07 675K
20260411T06Z_MSC_RDPS_SpecificHumidity_IsbL-0925_RLatLon0.09_PT061H.grib2 2026-04-11 09:07 677K
20260411T06Z_MSC_RDPS_SpecificHumidity_IsbL-0950_RLatLon0.09_PT061H.grib2 2026-04-11 09:07 675K
20260411T06Z_MSC_RDPS_SpecificHumidity_IsbL-0970_RLatLon0.09_PT061H.grib2 2026-04-11 09:07 673K
20260411T06Z_MSC_RDPS_SpecificHumidity_IsbL-0985_RLatLon0.09_PT061H.grib2 2026-04-11 09:07 669K
20260411T06Z_MSC_RDPS_SpecificHumidity_IsbL-1000_RLatLon0.09_PT061H.grib2 2026-04-11 09:07 659K
20260411T06Z_MSC_RDPS_SpecificHumidity_IsbL-1015_RLatLon0.09_PT061H.grib2 2026-04-11 09:07 647K
20260411T06Z_MSC_RDPS_SpecificHumidity_Sfc_RLatLon0.09_PT061H.grib2 2026-04-11 09:07 323K
20260411T06Z_MSC_RDPS_StormRelativeHelicity_EtaL-10000_RLatLon0.09_PT061H.grib2 2026-04-11 09:07 1.1M
20260411T06Z_MSC_RDPS_StormSeverityIndex_EtaL-10000_RLatLon0.09_PT061H.grib2 2026-04-11 09:07 1.2M
20260411T06Z_MSC_RDPS_Thickness_IsbL-0850to0700_RLatLon0.09_PT061H.grib2 2026-04-11 09:07 199K
20260411T06Z_MSC_RDPS_Thickness_IsbL-1000to0500_RLatLon0.09_PT061H.grib2 2026-04-11 09:07 140K
20260411T06Z_MSC_RDPS_Thickness_IsbL-1000to0850_RLatLon0.09_PT061H.grib2 2026-04-11 09:07 192K
20260411T06Z_MSC_RDPS_TotalCloudCover_Sfc_RLatLon0.09_PT061H.grib2 2026-04-11 09:07 651K
20260411T06Z_MSC_RDPS_TotalTotalsIndex_Sfc_RLatLon0.09_PT061H.grib2 2026-04-11 09:07 2.4M
20260411T06Z_MSC_RDPS_UVIndex-ClearSky_Sfc_RLatLon0.09_PT061H.grib2 2026-04-11 09:07 209K
20260411T06Z_MSC_RDPS_UVIndex_Sfc_RLatLon0.09_PT061H.grib2 2026-04-11 09:07 498K
20260411T06Z_MSC_RDPS_UpwardLongwaveRadiationFlux_NTAtm_RLatLon0.09_PT061H.grib2 2026-04-11 09:07 375K
20260411T06Z_MSC_RDPS_UpwardShortwaveRadiationFlux_NTAtm_RLatLon0.09_PT061H.grib2 2026-04-11 09:07 529K
20260411T06Z_MSC_RDPS_VerticalVelocity_IsbL-0250_RLatLon0.09_PT061H.grib2 2026-04-11 09:07 453K
20260411T06Z_MSC_RDPS_VerticalVelocity_IsbL-0500_RLatLon0.09_PT061H.grib2 2026-04-11 09:07 573K
20260411T06Z_MSC_RDPS_VerticalVelocity_IsbL-0700_RLatLon0.09_PT061H.grib2 2026-04-11 09:07 632K
20260411T06Z_MSC_RDPS_VerticalVelocity_IsbL-0850_RLatLon0.09_PT061H.grib2 2026-04-11 09:07 707K
20260411T06Z_MSC_RDPS_VerticalWindShear_EtaL-6500_RLatLon0.09_PT061H.grib2 2026-04-11 09:07 1.2M
20260411T06Z_MSC_RDPS_WindChill_Sfc_RLatLon0.09_PT061H.grib2 2026-04-11 09:07 1.1M
20260411T06Z_MSC_RDPS_WindDir_AGL-10m_RLatLon0.09_PT061H.grib2 2026-04-11 09:07 932K
20260411T06Z_MSC_RDPS_WindDir_AGL-120m_RLatLon0.09_PT061H.grib2 2026-04-11 09:07 576K
20260411T06Z_MSC_RDPS_WindDir_AGL-40m_RLatLon0.09_PT061H.grib2 2026-04-11 09:07 598K
20260411T06Z_MSC_RDPS_WindDir_AGL-80m_RLatLon0.09_PT061H.grib2 2026-04-11 09:07 585K
20260411T06Z_MSC_RDPS_WindDir_IsbL-0001_RLatLon0.09_PT061H.grib2 2026-04-11 09:07 259K
20260411T06Z_MSC_RDPS_WindDir_IsbL-0005_RLatLon0.09_PT061H.grib2 2026-04-11 09:07 333K
20260411T06Z_MSC_RDPS_WindDir_IsbL-0010_RLatLon0.09_PT061H.grib2 2026-04-11 09:07 350K
20260411T06Z_MSC_RDPS_WindDir_IsbL-0020_RLatLon0.09_PT061H.grib2 2026-04-11 09:07 380K
20260411T06Z_MSC_RDPS_WindDir_IsbL-0030_RLatLon0.09_PT061H.grib2 2026-04-11 09:07 367K
20260411T06Z_MSC_RDPS_WindDir_IsbL-0050_RLatLon0.09_PT061H.grib2 2026-04-11 09:07 399K
20260411T06Z_MSC_RDPS_WindDir_IsbL-0100_RLatLon0.09_PT061H.grib2 2026-04-11 09:07 384K
20260411T06Z_MSC_RDPS_WindDir_IsbL-0150_RLatLon0.09_PT061H.grib2 2026-04-11 09:07 375K
20260411T06Z_MSC_RDPS_WindDir_IsbL-0175_RLatLon0.09_PT061H.grib2 2026-04-11 09:07 397K
20260411T06Z_MSC_RDPS_WindDir_IsbL-0200_RLatLon0.09_PT061H.grib2 2026-04-11 09:07 409K
20260411T06Z_MSC_RDPS_WindDir_IsbL-0225_RLatLon0.09_PT061H.grib2 2026-04-11 09:07 415K
20260411T06Z_MSC_RDPS_WindDir_IsbL-0250_RLatLon0.09_PT061H.grib2 2026-04-11 09:07 419K
20260411T06Z_MSC_RDPS_WindDir_IsbL-0275_RLatLon0.09_PT061H.grib2 2026-04-11 09:07 436K
20260411T06Z_MSC_RDPS_WindDir_IsbL-0300_RLatLon0.09_PT061H.grib2 2026-04-11 09:07 439K
20260411T06Z_MSC_RDPS_WindDir_IsbL-0350_RLatLon0.09_PT061H.grib2 2026-04-11 09:07 471K
20260411T06Z_MSC_RDPS_WindDir_IsbL-0400_RLatLon0.09_PT061H.grib2 2026-04-11 09:07 493K
20260411T06Z_MSC_RDPS_WindDir_IsbL-0450_RLatLon0.09_PT061H.grib2 2026-04-11 09:07 518K
20260411T06Z_MSC_RDPS_WindDir_IsbL-0500_RLatLon0.09_PT061H.grib2 2026-04-11 09:07 534K
20260411T06Z_MSC_RDPS_WindDir_IsbL-0550_RLatLon0.09_PT061H.grib2 2026-04-11 09:07 558K
20260411T06Z_MSC_RDPS_WindDir_IsbL-0600_RLatLon0.09_PT061H.grib2 2026-04-11 09:07 588K
20260411T06Z_MSC_RDPS_WindDir_IsbL-0650_RLatLon0.09_PT061H.grib2 2026-04-11 09:07 631K
20260411T06Z_MSC_RDPS_WindDir_IsbL-0700_RLatLon0.09_PT061H.grib2 2026-04-11 09:07 664K
20260411T06Z_MSC_RDPS_WindDir_IsbL-0750_RLatLon0.09_PT061H.grib2 2026-04-11 09:07 700K
20260411T06Z_MSC_RDPS_WindDir_IsbL-0800_RLatLon0.09_PT061H.grib2 2026-04-11 09:07 755K
20260411T06Z_MSC_RDPS_WindDir_IsbL-0850_RLatLon0.09_PT061H.grib2 2026-04-11 09:07 820K
20260411T06Z_MSC_RDPS_WindDir_IsbL-0875_RLatLon0.09_PT061H.grib2 2026-04-11 09:07 844K
20260411T06Z_MSC_RDPS_WindDir_IsbL-0900_RLatLon0.09_PT061H.grib2 2026-04-11 09:07 859K
20260411T06Z_MSC_RDPS_WindDir_IsbL-0925_RLatLon0.09_PT061H.grib2 2026-04-11 09:07 867K
20260411T06Z_MSC_RDPS_WindDir_IsbL-0950_RLatLon0.09_PT061H.grib2 2026-04-11 09:07 872K
20260411T06Z_MSC_RDPS_WindDir_IsbL-0970_RLatLon0.09_PT061H.grib2 2026-04-11 09:07 880K
20260411T06Z_MSC_RDPS_WindDir_IsbL-0985_RLatLon0.09_PT061H.grib2 2026-04-11 09:07 891K
20260411T06Z_MSC_RDPS_WindDir_IsbL-1000_RLatLon0.09_PT061H.grib2 2026-04-11 09:07 904K
20260411T06Z_MSC_RDPS_WindDir_IsbL-1015_RLatLon0.09_PT061H.grib2 2026-04-11 09:07 919K
20260411T06Z_MSC_RDPS_WindGust-Max_AGL-10m_RLatLon0.09_PT061H.grib2 2026-04-11 09:07 1.0M
20260411T06Z_MSC_RDPS_WindGust-Min_AGL-10m_RLatLon0.09_PT061H.grib2 2026-04-11 09:07 1.0M
20260411T06Z_MSC_RDPS_WindGust_AGL-10m_RLatLon0.09_PT061H.grib2 2026-04-11 09:07 1.0M
20260411T06Z_MSC_RDPS_WindSpeed_AGL-10m_RLatLon0.09_PT061H.grib2 2026-04-11 09:07 843K
20260411T06Z_MSC_RDPS_WindSpeed_AGL-120m_RLatLon0.09_PT061H.grib2 2026-04-11 09:07 538K
20260411T06Z_MSC_RDPS_WindSpeed_AGL-40m_RLatLon0.09_PT061H.grib2 2026-04-11 09:07 543K
20260411T06Z_MSC_RDPS_WindSpeed_AGL-80m_RLatLon0.09_PT061H.grib2 2026-04-11 09:07 539K
20260411T06Z_MSC_RDPS_WindSpeed_IsbL-0001_RLatLon0.09_PT061H.grib2 2026-04-11 09:07 271K
20260411T06Z_MSC_RDPS_WindSpeed_IsbL-0005_RLatLon0.09_PT061H.grib2 2026-04-11 09:07 314K
20260411T06Z_MSC_RDPS_WindSpeed_IsbL-0010_RLatLon0.09_PT061H.grib2 2026-04-11 09:07 355K
20260411T06Z_MSC_RDPS_WindSpeed_IsbL-0020_RLatLon0.09_PT061H.grib2 2026-04-11 09:07 378K
20260411T06Z_MSC_RDPS_WindSpeed_IsbL-0030_RLatLon0.09_PT061H.grib2 2026-04-11 09:07 342K
20260411T06Z_MSC_RDPS_WindSpeed_IsbL-0050_RLatLon0.09_PT061H.grib2 2026-04-11 09:07 377K
20260411T06Z_MSC_RDPS_WindSpeed_IsbL-0100_RLatLon0.09_PT061H.grib2 2026-04-11 09:07 495K
20260411T06Z_MSC_RDPS_WindSpeed_IsbL-0150_RLatLon0.09_PT061H.grib2 2026-04-11 09:07 376K
20260411T06Z_MSC_RDPS_WindSpeed_IsbL-0175_RLatLon0.09_PT061H.grib2 2026-04-11 09:07 420K
20260411T06Z_MSC_RDPS_WindSpeed_IsbL-0200_RLatLon0.09_PT061H.grib2 2026-04-11 09:07 435K
20260411T06Z_MSC_RDPS_WindSpeed_IsbL-0225_RLatLon0.09_PT061H.grib2 2026-04-11 09:07 441K
20260411T06Z_MSC_RDPS_WindSpeed_IsbL-0250_RLatLon0.09_PT061H.grib2 2026-04-11 09:07 444K
20260411T06Z_MSC_RDPS_WindSpeed_IsbL-0275_RLatLon0.09_PT061H.grib2 2026-04-11 09:07 457K
20260411T06Z_MSC_RDPS_WindSpeed_IsbL-0300_RLatLon0.09_PT061H.grib2 2026-04-11 09:07 454K
20260411T06Z_MSC_RDPS_WindSpeed_IsbL-0350_RLatLon0.09_PT061H.grib2 2026-04-11 09:07 463K
20260411T06Z_MSC_RDPS_WindSpeed_IsbL-0400_RLatLon0.09_PT061H.grib2 2026-04-11 09:07 468K
20260411T06Z_MSC_RDPS_WindSpeed_IsbL-0450_RLatLon0.09_PT061H.grib2 2026-04-11 09:07 456K
20260411T06Z_MSC_RDPS_WindSpeed_IsbL-0500_RLatLon0.09_PT061H.grib2 2026-04-11 09:07 459K
20260411T06Z_MSC_RDPS_WindSpeed_IsbL-0550_RLatLon0.09_PT061H.grib2 2026-04-11 09:07 463K
20260411T06Z_MSC_RDPS_WindSpeed_IsbL-0600_RLatLon0.09_PT061H.grib2 2026-04-11 09:07 593K
20260411T06Z_MSC_RDPS_WindSpeed_IsbL-0650_RLatLon0.09_PT061H.grib2 2026-04-11 09:07 617K
20260411T06Z_MSC_RDPS_WindSpeed_IsbL-0700_RLatLon0.09_PT061H.grib2 2026-04-11 09:07 683K
20260411T06Z_MSC_RDPS_WindSpeed_IsbL-0750_RLatLon0.09_PT061H.grib2 2026-04-11 09:07 714K
20260411T06Z_MSC_RDPS_WindSpeed_IsbL-0800_RLatLon0.09_PT061H.grib2 2026-04-11 09:07 764K
20260411T06Z_MSC_RDPS_WindSpeed_IsbL-0850_RLatLon0.09_PT061H.grib2 2026-04-11 09:07 820K
20260411T06Z_MSC_RDPS_WindSpeed_IsbL-0875_RLatLon0.09_PT061H.grib2 2026-04-11 09:07 840K
20260411T06Z_MSC_RDPS_WindSpeed_IsbL-0900_RLatLon0.09_PT061H.grib2 2026-04-11 09:07 856K
20260411T06Z_MSC_RDPS_WindSpeed_IsbL-0925_RLatLon0.09_PT061H.grib2 2026-04-11 09:07 865K
20260411T06Z_MSC_RDPS_WindSpeed_IsbL-0950_RLatLon0.09_PT061H.grib2 2026-04-11 09:07 866K
20260411T06Z_MSC_RDPS_WindSpeed_IsbL-0970_RLatLon0.09_PT061H.grib2 2026-04-11 09:07 864K
20260411T06Z_MSC_RDPS_WindSpeed_IsbL-0985_RLatLon0.09_PT061H.grib2 2026-04-11 09:07 861K
20260411T06Z_MSC_RDPS_WindSpeed_IsbL-1000_RLatLon0.09_PT061H.grib2 2026-04-11 09:07 854K
20260411T06Z_MSC_RDPS_WindSpeed_IsbL-1015_RLatLon0.09_PT061H.grib2 2026-04-11 09:07 844K
20260411T06Z_MSC_RDPS_WindU_AGL-10m_RLatLon0.09_PT061H.grib2 2026-04-11 09:07 436K
20260411T06Z_MSC_RDPS_WindU_AGL-120m_RLatLon0.09_PT061H.grib2 2026-04-11 09:07 419K
20260411T06Z_MSC_RDPS_WindU_AGL-40m_RLatLon0.09_PT061H.grib2 2026-04-11 09:07 422K
20260411T06Z_MSC_RDPS_WindU_AGL-80m_RLatLon0.09_PT061H.grib2 2026-04-11 09:07 420K
20260411T06Z_MSC_RDPS_WindU_IsbL-0001_RLatLon0.09_PT061H.grib2 2026-04-11 09:07 266K
20260411T06Z_MSC_RDPS_WindU_IsbL-0005_RLatLon0.09_PT061H.grib2 2026-04-11 09:07 307K
20260411T06Z_MSC_RDPS_WindU_IsbL-0010_RLatLon0.09_PT061H.grib2 2026-04-11 09:07 318K
20260411T06Z_MSC_RDPS_WindU_IsbL-0020_RLatLon0.09_PT061H.grib2 2026-04-11 09:07 339K
20260411T06Z_MSC_RDPS_WindU_IsbL-0030_RLatLon0.09_PT061H.grib2 2026-04-11 09:07 372K
20260411T06Z_MSC_RDPS_WindU_IsbL-0050_RLatLon0.09_PT061H.grib2 2026-04-11 09:07 369K
20260411T06Z_MSC_RDPS_WindU_IsbL-0100_RLatLon0.09_PT061H.grib2 2026-04-11 09:07 348K
20260411T06Z_MSC_RDPS_WindU_IsbL-0150_RLatLon0.09_PT061H.grib2 2026-04-11 09:07 392K
20260411T06Z_MSC_RDPS_WindU_IsbL-0175_RLatLon0.09_PT061H.grib2 2026-04-11 09:07 415K
20260411T06Z_MSC_RDPS_WindU_IsbL-0200_RLatLon0.09_PT061H.grib2 2026-04-11 09:07 430K
20260411T06Z_MSC_RDPS_WindU_IsbL-0225_RLatLon0.09_PT061H.grib2 2026-04-11 09:07 336K
20260411T06Z_MSC_RDPS_WindU_IsbL-0250_RLatLon0.09_PT061H.grib2 2026-04-11 09:07 337K
20260411T06Z_MSC_RDPS_WindU_IsbL-0275_RLatLon0.09_PT061H.grib2 2026-04-11 09:07 348K
20260411T06Z_MSC_RDPS_WindU_IsbL-0300_RLatLon0.09_PT061H.grib2 2026-04-11 09:07 345K
20260411T06Z_MSC_RDPS_WindU_IsbL-0350_RLatLon0.09_PT061H.grib2 2026-04-11 09:07 353K
20260411T06Z_MSC_RDPS_WindU_IsbL-0400_RLatLon0.09_PT061H.grib2 2026-04-11 09:07 458K
20260411T06Z_MSC_RDPS_WindU_IsbL-0450_RLatLon0.09_PT061H.grib2 2026-04-11 09:07 463K
20260411T06Z_MSC_RDPS_WindU_IsbL-0500_RLatLon0.09_PT061H.grib2 2026-04-11 09:07 465K
20260411T06Z_MSC_RDPS_WindU_IsbL-0550_RLatLon0.09_PT061H.grib2 2026-04-11 09:07 471K
20260411T06Z_MSC_RDPS_WindU_IsbL-0600_RLatLon0.09_PT061H.grib2 2026-04-11 09:07 484K
20260411T06Z_MSC_RDPS_WindU_IsbL-0650_RLatLon0.09_PT061H.grib2 2026-04-11 09:07 505K
20260411T06Z_MSC_RDPS_WindU_IsbL-0700_RLatLon0.09_PT061H.grib2 2026-04-11 09:07 524K
20260411T06Z_MSC_RDPS_WindU_IsbL-0750_RLatLon0.09_PT061H.grib2 2026-04-11 09:07 537K
20260411T06Z_MSC_RDPS_WindU_IsbL-0800_RLatLon0.09_PT061H.grib2 2026-04-11 09:07 581K
20260411T06Z_MSC_RDPS_WindU_IsbL-0850_RLatLon0.09_PT061H.grib2 2026-04-11 09:07 629K
20260411T06Z_MSC_RDPS_WindU_IsbL-0875_RLatLon0.09_PT061H.grib2 2026-04-11 09:07 654K
20260411T06Z_MSC_RDPS_WindU_IsbL-0900_RLatLon0.09_PT061H.grib2 2026-04-11 09:07 664K
20260411T06Z_MSC_RDPS_WindU_IsbL-0925_RLatLon0.09_PT061H.grib2 2026-04-11 09:07 668K
20260411T06Z_MSC_RDPS_WindU_IsbL-0950_RLatLon0.09_PT061H.grib2 2026-04-11 09:07 662K
20260411T06Z_MSC_RDPS_WindU_IsbL-0970_RLatLon0.09_PT061H.grib2 2026-04-11 09:07 661K
20260411T06Z_MSC_RDPS_WindU_IsbL-0985_RLatLon0.09_PT061H.grib2 2026-04-11 09:07 658K
20260411T06Z_MSC_RDPS_WindU_IsbL-1000_RLatLon0.09_PT061H.grib2 2026-04-11 09:07 793K
20260411T06Z_MSC_RDPS_WindU_IsbL-1015_RLatLon0.09_PT061H.grib2 2026-04-11 09:07 785K
20260411T06Z_MSC_RDPS_WindV_AGL-10m_RLatLon0.09_PT061H.grib2 2026-04-11 09:07 435K
20260411T06Z_MSC_RDPS_WindV_AGL-120m_RLatLon0.09_PT061H.grib2 2026-04-11 09:07 417K
20260411T06Z_MSC_RDPS_WindV_AGL-40m_RLatLon0.09_PT061H.grib2 2026-04-11 09:07 537K
20260411T06Z_MSC_RDPS_WindV_AGL-80m_RLatLon0.09_PT061H.grib2 2026-04-11 09:07 535K
20260411T06Z_MSC_RDPS_WindV_IsbL-0001_RLatLon0.09_PT061H.grib2 2026-04-11 09:07 211K
20260411T06Z_MSC_RDPS_WindV_IsbL-0005_RLatLon0.09_PT061H.grib2 2026-04-11 09:07 239K
20260411T06Z_MSC_RDPS_WindV_IsbL-0010_RLatLon0.09_PT061H.grib2 2026-04-11 09:07 319K
20260411T06Z_MSC_RDPS_WindV_IsbL-0020_RLatLon0.09_PT061H.grib2 2026-04-11 09:07 372K
20260411T06Z_MSC_RDPS_WindV_IsbL-0030_RLatLon0.09_PT061H.grib2 2026-04-11 09:07 372K
20260411T06Z_MSC_RDPS_WindV_IsbL-0050_RLatLon0.09_PT061H.grib2 2026-04-11 09:07 401K
20260411T06Z_MSC_RDPS_WindV_IsbL-0100_RLatLon0.09_PT061H.grib2 2026-04-11 09:07 344K
20260411T06Z_MSC_RDPS_WindV_IsbL-0150_RLatLon0.09_PT061H.grib2 2026-04-11 09:07 390K
20260411T06Z_MSC_RDPS_WindV_IsbL-0175_RLatLon0.09_PT061H.grib2 2026-04-11 09:07 318K
20260411T06Z_MSC_RDPS_WindV_IsbL-0200_RLatLon0.09_PT061H.grib2 2026-04-11 09:07 331K
20260411T06Z_MSC_RDPS_WindV_IsbL-0225_RLatLon0.09_PT061H.grib2 2026-04-11 09:07 335K
20260411T06Z_MSC_RDPS_WindV_IsbL-0250_RLatLon0.09_PT061H.grib2 2026-04-11 09:07 362K
20260411T06Z_MSC_RDPS_WindV_IsbL-0275_RLatLon0.09_PT061H.grib2 2026-04-11 09:07 371K
20260411T06Z_MSC_RDPS_WindV_IsbL-0300_RLatLon0.09_PT061H.grib2 2026-04-11 09:07 369K
20260411T06Z_MSC_RDPS_WindV_IsbL-0350_RLatLon0.09_PT061H.grib2 2026-04-11 09:07 374K
20260411T06Z_MSC_RDPS_WindV_IsbL-0400_RLatLon0.09_PT061H.grib2 2026-04-11 09:07 379K
20260411T06Z_MSC_RDPS_WindV_IsbL-0450_RLatLon0.09_PT061H.grib2 2026-04-11 09:07 360K
20260411T06Z_MSC_RDPS_WindV_IsbL-0500_RLatLon0.09_PT061H.grib2 2026-04-11 09:07 361K
20260411T06Z_MSC_RDPS_WindV_IsbL-0550_RLatLon0.09_PT061H.grib2 2026-04-11 09:07 468K
20260411T06Z_MSC_RDPS_WindV_IsbL-0600_RLatLon0.09_PT061H.grib2 2026-04-11 09:07 479K
20260411T06Z_MSC_RDPS_WindV_IsbL-0650_RLatLon0.09_PT061H.grib2 2026-04-11 09:07 500K
20260411T06Z_MSC_RDPS_WindV_IsbL-0700_RLatLon0.09_PT061H.grib2 2026-04-11 09:07 520K
20260411T06Z_MSC_RDPS_WindV_IsbL-0750_RLatLon0.09_PT061H.grib2 2026-04-11 09:07 531K
20260411T06Z_MSC_RDPS_WindV_IsbL-0800_RLatLon0.09_PT061H.grib2 2026-04-11 09:07 574K
20260411T06Z_MSC_RDPS_WindV_IsbL-0850_RLatLon0.09_PT061H.grib2 2026-04-11 09:07 622K
20260411T06Z_MSC_RDPS_WindV_IsbL-0875_RLatLon0.09_PT061H.grib2 2026-04-11 09:07 641K
20260411T06Z_MSC_RDPS_WindV_IsbL-0900_RLatLon0.09_PT061H.grib2 2026-04-11 09:07 653K
20260411T06Z_MSC_RDPS_WindV_IsbL-0925_RLatLon0.09_PT061H.grib2 2026-04-11 09:07 658K
20260411T06Z_MSC_RDPS_WindV_IsbL-0950_RLatLon0.09_PT061H.grib2 2026-04-11 09:07 656K
20260411T06Z_MSC_RDPS_WindV_IsbL-0970_RLatLon0.09_PT061H.grib2 2026-04-11 09:07 657K
20260411T06Z_MSC_RDPS_WindV_IsbL-0985_RLatLon0.09_PT061H.grib2 2026-04-11 09:07 796K
20260411T06Z_MSC_RDPS_WindV_IsbL-1000_RLatLon0.09_PT061H.grib2 2026-04-11 09:07 791K
20260411T06Z_MSC_RDPS_WindV_IsbL-1015_RLatLon0.09_PT061H.grib2 2026-04-11 09:07 783K